This demonstration page uses our WeatherBlox Daily Observations layout. Learn more.

Left ArrowRight Arrow

Hourly Observations for June 16, 2015

Temp ( °F °C ) Dew Point ( °F °C ) Humidity (%) Winds ( mph kmh ) Pressure ( in mb ) Visibility ( mi km ) Precip ( " mm )
12:54 am 00:54 Clear 60 15.6 56 13.3 86 86 N 3 6 30.16 1021 10 16.0934 N/A
1:54 am 01:54 Clear 58 14.4 55 12.8 90 90 N 7 11 30.16 1021 10 16.0934 N/A
2:54 am 02:54 Clear 57 13.9 55 12.8 93 93 N N/A 30.15 1021 10 16.0934 N/A
3:54 am 03:54 Clear 56 13.3 54 12.2 93 93 N 3 6 30.16 1021 10 16.0934 N/A
4:54 am 04:54 Clear 56 13.3 54 12.2 93 93 NNW 5 7 30.15 1021 10 16.0934 N/A
5:54 am 05:54 Clear 54 12.2 53 11.7 97 97 N 5 7 30.16 1021 8 12.87472 N/A
6:54 am 06:54 Sunny 58 14.4 55 12.8 90 90 N 5 7 30.16 1021 10 16.0934 N/A
7:54 am 07:54 Sunny 63 17.2 59 15 87 87 N 3 6 30.15 1021 10 16.0934 N/A
8:54 am 08:54 Sunny 68 20 57 13.9 68 68 E 8 13 30.14 1021 10 16.0934 N/A
9:54 am 09:54 Sunny 72 22.2 54 12.2 53 53 E 15 24 30.13 1020 10 16.0934 N/A
10:54 am 10:54 Sunny 75 23.9 54 12.2 48 48 SE 16 26 30.13 1020 10 16.0934 N/A
11:54 am 11:54 Sunny 77 25 52 11.1 42 42 E 12 19 30.14 1021 10 16.0934 N/A
12:54 pm 12:54 Sunny 77 25 53 11.7 43 43 SE 9 15 30.13 1020 10 16.0934 N/A
1:54 pm 13:54 Sunny 79 26.1 53 11.7 41 41 SSE 10 17 30.1 1019 10 16.0934 N/A
2:54 pm 14:54 Sunny 79 26.1 55 12.8 44 44 SSE 6 9 30.08 1019 10 16.0934 N/A
3:54 pm 15:54 Sunny 80 26.7 56 13.3 44 44 SE 14 22 30.04 1017 10 16.0934 N/A
4:54 pm 16:54 Sunny 80 26.7 58 14.4 47 47 SE 12 19 30.01 1016 10 16.0934 N/A
5:54 pm 17:54 Sunny 80 26.7 61 16.1 52 52 S 8 13 30 1016 10 16.0934 N/A
6:54 pm 18:54 Sunny 80 26.7 60 15.6 51 51 SSE 5 7 29.98 1015 10 16.0934 N/A
7:54 pm 19:54 Sunny 78 25.6 62 16.7 58 58 SSE 10 17 29.96 1015 10 16.0934 N/A
8:54 pm 20:54 Sunny 74 23.3 62 16.7 67 67 SSE 9 15 29.96 1015 10 16.0934 N/A
9:54 pm 21:54 Clear 73 22.8 63 17.2 71 71 S 6 9 29.98 1015 10 16.0934 N/A
10:54 pm 22:54 Clear 70 21.1 64 17.8 82 82 SSE 7 11 29.99 1016 10 16.0934 N/A

Powered by AerisWeather